This demonstration page uses our WeatherBlox Daily Observations layout. Learn more.

Hourly Observations for December 20, 2015

Temp ( °F °C ) Dew Point ( °F °C ) Humidity (%) Winds ( mph kmh ) Pressure ( in mb ) Visibility ( mi km ) Precip ( " mm )
12:15 am 00:15 Clear 34 1.2 32 -0.1 91 91 S 5 7 29.88 1012 10 16.0934 0 0
12:35 am 00:35 Clear 35 1.5 32 -0.1 89 89 S 8 13 29.88 1012 10 16.0934 0 0
12:55 am 00:55 Clear 34 1.3 32 0 91 91 S 9 15 29.85 1011 10 16.0934 0 0
1:15 am 01:15 Clear 34 1 31 -0.4 90 90 S 7 11 29.85 1011 10 16.0934 0 0
1:35 am 01:35 Clear 34 1 32 -0.2 92 92 S 5 7 29.85 1011 10 16.0934 0 0
1:55 am 01:55 Clear 34 1.1 31 -0.3 91 91 S 7 11 29.85 1011 10 16.0934 0 0
2:15 am 02:15 Clear 34 1 31 -0.4 90 90 S 7 11 29.85 1011 10 16.0934 0 0
2:35 am 02:35 Clear 35 1.5 32 0 90 90 S 8 13 29.85 1011 10 16.0934 0 0
2:55 am 02:55 Clear 35 1.6 32 -0.2 88 88 S 5 7 29.83 1010 10 16.0934 0 0
3:15 am 03:15 Clear 34 1.2 32 -0.2 91 91 SSE 6 9 29.83 1010 10 16.0934 0 0
3:35 am 03:35 Clear 34 1.1 32 -0.2 91 91 S 5 7 29.83 1010 10 16.0934 0 0
3:55 am 03:55 Clear 34 1.2 31 -0.3 90 90 S 6 9 29.8 1009 10 16.0934 0 0
4:15 am 04:15 Clear 34 0.9 31 -0.4 91 91 S 8 13 29.8 1009 10 16.0934 0 0
4:35 am 04:35 Clear 35 1.5 31 -0.3 88 88 Calm 29.8 1009 10 16.0934 0 0
4:55 am 04:55 Clear 32 0.1 30 -1.3 90 90 S 6 9 29.83 1010 10 16.0934 0 0
5:15 am 05:15 Clear 33 0.7 31 -0.7 90 90 Calm 29.8 1009 10 16.0934 0 0
5:35 am 05:35 Clear 31 -0.5 28 -2 90 90 Calm 29.83 1010 10 16.0934 0 0
5:55 am 05:55 Clear 31 -0.5 29 -1.9 90 90 SE 3 6 29.83 1010 10 16.0934 0 0
6:15 am 06:15 Clear 31 -0.5 29 -1.7 92 92 Calm 29.83 1010 10 16.0934 0 0
6:35 am 06:35 Clear 31 -0.6 29 -1.7 92 92 Calm 29.83 1010 10 16.0934 0 0
6:55 am 06:55 Clear 30 -1.1 28 -2 94 94 NNW 3 6 29.83 1010 10 16.0934 0 0
7:15 am 07:15 Clear 30 -0.9 29 -1.7 94 94 Calm 29.83 1010 10 16.0934 0 0
7:35 am 07:35 Clear 31 -0.7 29 -1.5 94 94 Calm 29.83 1010 10 16.0934 0 0
7:55 am 07:55 Clear 29 -1.4 28 -2.3 94 94 Calm 29.83 1010 10 16.0934 0 0
8:15 am 08:15 Sunny 29 -1.4 28 -2.2 94 94 ENE 3 6 29.8 1009 10 16.0934 0 0
8:35 am 08:35 Sunny 31 -0.3 30 -1 95 95 Calm 29.83 1010 10 16.0934 0 0
8:55 am 08:55 Sunny 32 0 31 -0.8 94 94 Calm 29.77 1008 10 16.0934 0 0
9:15 am 09:15 Sunny 32 0 31 -0.6 96 96 Calm 29.77 1008 10 16.0934 0 0
9:35 am 09:35 Sunny 32 0.1 31 -0.5 96 96 Calm 29.77 1008 10 16.0934 0 0
9:55 am 09:55 Sunny 32 0.2 31 -0.5 95 95 Calm 29.77 1008 10 16.0934 0 0
10:15 am 10:15 Sunny 33 0.5 32 -0.2 95 95 Calm 29.8 1009 10 16.0934 0 0
10:35 am 10:35 Sunny 34 1 32 0 93 93 Calm 29.8 1009 10 16.0934 0 0
10:55 am 10:55 Sunny 35 1.5 32 0.2 91 91 N 3 6 29.77 1008 10 16.0934 0 0
11:15 am 11:15 Sunny 36 2 33 0.5 90 90 Calm 29.77 1008 10 16.0934 0 0
11:35 am 11:35 Sunny 37 2.7 33 0.7 87 87 N 6 9 29.71 1006 10 16.0934 0 0
11:55 am 11:55 Sunny 38 3.5 33 0.7 82 82 N 5 7 29.68 1005 10 16.0934 0 0
12:15 pm 12:15 Sunny 38 3.6 34 1.1 84 84 N 3 6 29.71 1006 10 16.0934 0 0
12:35 pm 12:35 Sunny 38 3.6 34 1 83 83 Calm 29.71 1006 10 16.0934 0 0
12:55 pm 12:55 Sunny 40 4.4 34 1.3 81 81 Calm 29.71 1006 10 16.0934 0 0
1:15 pm 13:15 Sunny 41 5 35 1.4 78 78 N 7 11 29.71 1006 10 16.0934 0 0
1:35 pm 13:35 Sunny 41 5 35 1.8 80 80 N 8 13 29.71 1006 10 16.0934 0 0
1:55 pm 13:55 Sunny 40 4.7 35 1.8 82 82 N 9 15 29.68 1005 10 16.0934 0 0
2:15 pm 14:15 Sunny 41 5.1 36 2 81 81 NNE 10 17 29.68 1005 10 16.0934 0 0
2:35 pm 14:35 Sunny 42 5.5 36 2.1 79 79 N 7 11 29.65 1004 10 16.0934 0 0
2:55 pm 14:55 Sunny 42 5.8 36 2.2 78 78 N 12 19 29.65 1004 10 16.0934 0 0
3:15 pm 15:15 Sunny 43 6 35 1.6 74 74 NNE 12 19 29.65 1004 10 16.0934 0 0
3:35 pm 15:35 Sunny 43 6 35 1.9 75 75 NNE 10 17 29.68 1005 10 16.0934 0 0
3:55 pm 15:55 Partly Cloudy 42 5.3 33 0.6 72 72 NNE 13 20 29.71 1006 10 16.0934 0 0
4:15 pm 16:15 Partly Cloudy 40 4.7 32 0.2 73 73 NNE 15 24 29.71 1006 10 16.0934 0 0
4:35 pm 16:35 Sunny 39 4.1 32 0 75 75 NNE 15 24 29.71 1006 10 16.0934 0 0
4:55 pm 16:55 Sunny 38 3.5 32 0 78 78 N 13 20 29.71 1006 10 16.0934 0 0
5:15 pm 17:15 Partly Cloudy 37 3 32 0 81 81 N 13 20 29.77 1008 10 16.0934 0 0
5:35 pm 17:35 Mostly Cloudy 36 2.4 32 -0.1 84 84 N 9 15 29.8 1009 10 16.0934 0 0
5:55 pm 17:55 Cloudy 36 2.2 31 -0.5 83 83 N 10 17 29.8 1009 10 16.0934 0 0
6:15 pm 18:15 Cloudy 35 1.9 30 -1.1 81 81 N 14 22 29.8 1009 10 16.0934 0 0
6:35 pm 18:35 Cloudy 35 1.4 29 -1.5 81 81 N 17 28 29.8 1009 10 16.0934 0 0
6:55 pm 18:55 Cloudy 34 1 28 -2 81 81 N 17 28 29.83 1010 10 16.0934 0 0
7:15 pm 19:15 Cloudy 33 0.7 28 -2.2 81 81 N 13 20 29.83 1010 10 16.0934 0 0
7:35 pm 19:35 Cloudy 33 0.7 28 -2.5 79 79 N 15 24 29.83 1010 10 16.0934 0 0
7:55 pm 19:55 Cloudy 33 0.5 28 -2.5 81 81 N 10 17 29.83 1010 10 16.0934 0 0
8:15 pm 20:15 Cloudy 33 0.5 27 -3 78 78 N 16 26 29.83 1010 10 16.0934 0 0
8:35 pm 20:35 Cloudy 32 0.2 26 -3.1 79 79 N 15 24 29.88 1012 10 16.0934 0 0
8:55 pm 20:55 Cloudy 32 0.1 27 -3 80 80 N 10 17 29.88 1012 10 16.0934 0 0
9:15 pm 21:15 Cloudy 32 0 27 -3 80 80 N 8 13 29.88 1012 10 16.0934 0 0
9:35 pm 21:35 Cloudy 32 0 26 -3.2 79 79 N 12 19 29.88 1012 10 16.0934 0 0
9:55 pm 21:55 Cloudy 31 -0.4 26 -3.5 80 80 N 13 20 29.88 1012 10 16.0934 0 0
10:15 pm 22:15 Mostly Cloudy 31 -0.7 26 -3.5 82 82 N 14 22 29.88 1012 10 16.0934 0 0
10:35 pm 22:35 Partly Cloudy 30 -1 25 -3.8 82 82 N 13 20 29.88 1012 10 16.0934 0 0
10:55 pm 22:55 Clear 30 -1.2 26 -3.6 84 84 N 13 20 29.88 1012 10 16.0934 0 0
11:15 pm 23:15 Clear 30 -1.2 25 -3.9 82 82 NNW 15 24 29.88 1012 10 16.0934 0 0
11:35 pm 23:35 Clear 30 -1.2 25 -3.7 83 83 NNW 20 31 29.88 1012 10 16.0934 0 0
11:55 pm 23:55 Mostly Cloudy 30 -1.3 26 -3.6 85 85 NNW 20 31 29.88 1012 10 16.0934 0 0

Powered by AerisWeather